SCP
0 0 0 0 0 0 0 0 0 0 0 0 0 0 0 0 0 0 0 0 0 0 0 0 0 0 0 0 0 0 0 0 0 0 0 0 0 0 0 0 0 0 0 0
0 0 0 0 0 0 0 0 0 0 0 0 0 0 0 0 0 0 0 0 0 0 0 0 0 0 0 0 0 0 0 0 0 0 0 0 0 0 0 0 0 0 0 0
0 0 0 0 0 0 0 0 0 0 0 0 0 0 0 0 0 0 0 0 0 0 0 0 0 0 0 0 0 0 0 0 0 0 0 0 0 0 0 0 0 0 0 0
0 0 0 0 0 0 0 0 0 0 0 0 0 0 0 0 0 0 0 0 0 0 0 0 0 0 0 0 0 0 0 0 0 0 0 0 0 0 0 0 0 0 0 0
0 0 0 0 0 0 0 0 0 0 0 0 0 0 0 0 0 0 0 0 0 0 0 0 0 0 0 0 0 0 0 0 0 0 0 0 0 0 0 0 0 0 0 0
-0 0 0 0 0 0 0 0 0 0 0 0 0 0 0 0 0 0 0 0 0 0 0 0 0 0 0 0 0 0 0 0 0 0 0 0 0 0 0 0 0 0 0 0
0 -0 0 0 0 0 0 0 0 0 0 0 0 0 0 0 0 0 0 0 0 0 0 0 0 0 0 0 0 0 0 0 0 0 0 0 0 0 0 0 0 0 0 0
0 0 0 0 0 0 0 0 0 0 0 0 0 0 0 0 0 0 0 0 0 0 0 0 0 0 0 0 0 0 0 0 0 0 0 0 0 0 0 0 0 0 0 0
0 -0 0 0 0 0 0 0 0 0 0 0 0 0 0 0 0 0 0 0 0 0 0 0 0 0 0 0 0 0 0 0 0 0 0 0 0 0 0 0 0 0 0 0
0 0 0 0 0 0 0 0 0 0 0 0 0 0 0 0 0 0 0 0 0 0 0 0 0 0 0 0 0 0 0 0 0 0 0 0 0 0 0 0 0 0 0 0
0 0 0 0 0 0 0 0 0 0 0 0 0 0 0 0 0 0 0 0 0 0 0 0 0 0 0 0 0 0 0 0 0 0 0 0 0 0 0 0 0 0 0 0
0 0 0 0 0 0 0 0 0 0 0 0 0 0 0 0 0 0 0 0 0 0 0 0 0 0 0 0 0 0 0 0 0 0 0 0 0 0 0 0 0 0 0 0
0 0 0 0 0 0 0 0 0 0 0 0 0 0 0 0 0 0 0 0 0 0 0 0 0 0 0 0 0 0 0 0 0 0 0 0 0 0 0 0 0 0 0 0
0 0 0 0 0 0 0 0 0 0 0 0 0 0 0 0 0 0 0 0 0 0 0 0 0 0 0 0 0 0 0 0 0 0 0 0 0 0 0 0 0 0 0 0
0 0 0 0 0 0 0 0 0 0 0 0 0 0 0 0 0 0 0 0 0 0 0 0 0 0 0 0 0 0 0 0 0 0 0 0 0 0 0 0 0 0 0 0
0 0 0 0 0 0 0 0 0 0 0 0 0 0 0 0 0 0 0 0 0 0 0 0 0 0 0 0 0 0 0 0 0 0 0 0 0 0 0 0 0 0 0 0
0 0 0 0 0 0 0 0 0 0 0 0 0 0 0 0 0 0 0 0 0 0 0 0 0 0 0 0 0 0 0 0 0 0 0 0 0 0 0 0 0 0 0 0
0 0 0 0 0 0 0 0 0 0 0 0 0 0 0 0 0 0 0 0 0 0 0 0 0 0 0 0 0 0 0 0 0 0 0 0 0 0 0 0 0 0 0 0
-0 0 0 0 0 0 0 0 0 0 0 0 0 0 0 0 0 0 0 0 0 0 0 0 0 0 0 0 0 0 0 0 0 0 0 0 0 0 0 0 0 0 0 0
0 0 0 0 0 0 0 0 0 0 0 0 0 0 0 0 0 0 0 0 0 0 0 0 0 0 0 0 0 0 0 0 0 0 0 0 0 0 0 0 0 0 0 0
0 0 0 0 0 0 0 0 0 0 0 0 0 0 0 0 0 0 0 0 0 0 0 0 0 0 0 0 0 0 0 0 0 0 0 0 0 0 0 0 0 0 0 0
0 0 0 0 0 0 0 0 0 0 0 0 0 0 0 0 0 0 0 0 0 0 0 0 0 0 0 0 0 0 0 0 0 0 0 0 0 0 0 0 0 0 0 0
0 0 0 0 0 0 0 0 0 0 0 0 0 0 0 0 0 0 0 0 0 0 0 0 0 0 0 0 0 0 0 0 0 0 0 0 0 0 0 0 0 0 0 0
0 0 0 0 0 0 0 0 0 0 0 0 0 0 0 0 0 0 0 0 0 0 0 0 0 0 0 0 0 0 0 0 0 0 0 0 0 0 0 0 0 0 0 0
0 0 0 0 0 0 0 0 0 0 0 0 0 0 0 0 0 0 0 0 0 0 0 0 0 0 0 0 0 0 0 0 0 0 0 0 0 0 0 0 0 0 0 0
0 0 0 0 0 0 0 0 0 0 0 0 0 0 0 0 0 0 0 0 0 0 0 0 0 0 0 0 0 0 0 0 0 0 0 0 0 0 0 0 0 0 0 0
0 0 0 0 0 0 0 0 0 0 0 0 0 0 0 0 0 0 0 0 0 0 0 0 0 0 0 0 0 0 0 0 0 0 0 0 0 0 0 0 0 0 0 0
Wind_Speed_500mb
60 59 60 64 49 25 24 41 11 39 76 31 12 27 17 16 17 16 6 7 7 16 17 15 16 20 15 26 26 16 9 8 7 14 2 5 4 13 13 11 13 6 5 27
58 62 49 53 50 49 30 8 7 53 66 25 10 6 9 17 11 12 14 12 8 5 16 9 11 11 3 26 18 19 15 3 2 11 4 2 9 7 6 9 7 12 10 15
42 46 53 62 56 52 37 16 3 11 26 10 25 18 11 12 11 10 12 10 11 8 7 5 9 13 4 3 5 4 18 9 15 25 10 7 8 10 11 10 8 11 30 17
2 29 45 51 66 64 69 27 9 12 12 12 8 16 18 19 12 14 32 7 29 22 14 16 16 6 5 4 8 10 11 15 10 6 9 6 8 10 17 17 16 23 20 20
20 9 20 48 55 50 36 19 13 12 8 18 22 19 18 28 31 18 16 21 22 24 25 20 17 14 8 10 2 11 3 6 7 6 4 7 10 14 17 21 10 13 18 35
24 25 25 19 29 41 16 11 13 15 9 2 23 21 34 34 28 2 7 21 11 28 29 8 1 12 17 14 18 13 13 11 8 21 2 6 16 22 30 19 19 18 27 36
27 29 36 33 29 30 30 21 17 5 4 6 5 4 25 18 11 14 6 4 4 17 21 30 22 28 19 14 8 11 13 14 4 5 4 10 6 6 7 14 16 14 5 6
30 27 29 33 35 35 35 33 20 10 2 3 10 12 3 8 24 6 15 14 14 43 20 7 7 6 6 4 6 2 9 10 7 8 9 14 15 11 14 15 18 17 23 11
48 37 31 26 23 26 30 31 29 13 8 9 4 9 12 6 6 5 4 14 55 31 5 5 11 9 8 8 2 11 5 8 8 7 8 17 8 4 11 14 13 20 29 18
48 45 42 32 30 27 21 16 28 16 10 9 17 6 11 15 8 5 8 18 9 12 6 5 7 9 8 12 15 9 6 1 18 11 11 15 13 12 14 11 15 26 31 21
55 52 48 44 38 39 34 29 19 27 10 7 10 12 13 16 21 9 15 12 1 5 9 8 8 6 11 5 6 15 15 16 8 5 3 18 24 13 18 11 28 35 33 26
53 55 52 49 47 46 48 38 31 30 16 7 25 35 29 28 26 30 47 5 14 20 6 2 6 4 3 6 7 2 5 14 12 21 14 1 43 15 43 35 29 32 28 23
65 49 55 52 48 48 55 54 44 41 24 22 35 34 43 39 30 31 23 14 17 19 11 11 4 7 7 10 10 4 9 11 7 9 8 12 23 33 34 39 56 53 46 39
56 56 55 50 47 49 56 64 58 51 14 6 14 25 43 39 49 33 34 16 34 25 19 9 5 6 12 6 5 8 12 19 11 5 8 10 31 39 43 50 57 52 53 56
57 57 52 53 54 50 50 57 65 62 40 13 7 17 29 35 51 49 43 33 39 30 10 5 5 9 8 2 4 9 20 13 9 9 25 23 29 48 47 46 53 58 60 63
60 55 56 53 56 51 49 34 71 74 67 11 3 12 22 26 36 53 48 44 41 28 16 8 10 12 10 7 7 40 42 19 39 21 52 46 53 55 56 58 64 65 65 66
51 57 58 59 61 53 60 14 10 69 68 15 3 6 14 38 39 36 47 45 28 25 14 10 14 9 24 6 13 54 37 42 52 61 63 43 65 49 57 52 50 51 53 55
41 35 33 36 32 44 31 42 12 37 55 15 6 6 4 25 16 10 27 22 24 15 16 6 7 15 10 12 26 45 50 53 45 59 59 67 66 59 62 58 60 61 64 58
41 36 27 28 20 15 11 9 18 49 24 11 6 12 9 28 12 14 16 20 7 19 11 9 21 7 13 20 33 38 67 62 71 66 56 54 52 54 46 43 50 57 56 54
46 46 17 13 15 19 21 15 13 19 13 11 4 13 4 17 6 4 12 12 7 9 10 22 9 13 68 44 33 56 64 67 74 63 63 65 61 58 51 46 46 48 48 48
42 15 14 19 39 28 17 9 6 5 6 19 14 21 7 22 7 6 11 5 6 6 8 12 7 9 36 63 75 89 85 79 79 74 73 64 58 56 52 49 46 42 42 40
25 21 27 30 16 13 11 11 6 7 11 11 10 19 17 19 13 7 11 7 5 10 12 7 6 14 53 58 64 81 88 88 88 85 79 67 60 54 49 39 36 35 33 32
30 12 12 11 13 12 14 14 3 8 10 25 21 6 20 12 12 6 6 11 12 14 8 8 12 34 58 63 70 72 73 75 72 71 62 53 46 39 34 31 32 32 30 26
9 10 12 11 6 7 5 9 10 10 20 45 36 12 8 11 8 6 9 8 8 9 10 14 14 46 46 36 45 52 58 62 60 54 45 41 37 34 31 31 28 26 22 19
13 12 9 9 6 4 3 8 9 9 20 47 15 10 10 4 6 8 5 8 8 11 12 8 3 8 21 27 34 41 45 43 41 38 35 34 33 30 26 23 20 17 14 12
15 9 6 3 6 4 5 9 10 15 35 23 10 7 7 9 7 10 13 13 12 9 5 13 17 15 14 15 19 22 26 29 32 32 30 26 23 21 20 17 14 11 9 8
3 4 9 8 7 9 9 9 11 29 24 4 4 10 10 5 5 6 8 9 4 8 15 19 19 16 13 9 7 9 14 20 24 24 24 23 21 18 18 17 14 10 7 6
Wind_Direction_500mb
237 236 236 235 216 208 200 198 222 200 196 188 199 211 179 180 161 185 155 146 154 168 176 175 200 198 213 172 149 162 205 138 167 198 233 301 242 206 166 196 234 235 163 262
236 233 234 223 223 219 202 207 146 179 182 204 196 108 172 188 143 156 159 171 168 191 178 180 195 190 176 173 158 164 182 170 32 337 351 74 225 198 141 108 66 199 207 259
215 219 225 216 213 207 195 174 171 183 235 254 193 170 176 184 212 161 149 165 146 127 160 230 196 197 113 118 175 150 179 162 181 238 190 134 180 197 178 156 192 207 235 257
261 219 214 219 211 207 196 176 197 209 208 200 157 171 172 197 169 200 187 202 204 185 201 217 210 158 146 95 153 120 164 227 165 217 158 149 218 208 173 195 216 216 242 222
275 251 219 209 208 195 188 152 159 196 286 214 192 194 198 205 199 165 204 222 191 190 206 193 190 151 180 189 107 143 89 192 109 256 242 195 252 235 204 236 244 255 263 268
253 248 238 227 216 210 188 165 157 173 173 254 197 199 205 206 187 176 92 224 156 210 220 229 117 177 175 180 159 156 142 135 132 235 90 104 278 218 211 208 210 215 233 242
234 228 232 233 232 237 231 199 196 130 172 175 226 170 181 163 175 155 123 101 176 148 153 129 103 71 68 121 86 144 134 129 148 125 109 222 261 75 106 221 250 211 266 234
234 228 227 230 233 229 226 222 188 161 168 223 168 179 130 182 188 134 148 168 179 154 128 102 100 28 35 340 3 137 138 140 153 198 202 320 271 194 169 170 260 192 212 220
229 217 222 221 245 249 237 225 216 163 131 222 251 136 172 146 135 115 102 148 154 158 103 132 165 178 143 233 342 11 67 61 170 131 178 220 269 69 127 108 274 211 192 193
226 215 221 229 241 231 233 233 223 193 163 204 186 171 165 158 140 107 130 141 158 160 129 136 159 198 167 175 169 178 100 125 215 201 233 281 227 179 127 113 250 162 181 191
232 237 232 231 223 224 220 220 215 215 205 231 221 195 161 159 177 149 155 102 136 101 179 165 167 161 202 128 177 175 159 163 194 84 184 269 164 116 164 190 156 171 191 220
230 225 227 222 219 213 217 219 204 205 223 270 241 233 225 218 220 187 172 206 155 165 119 152 93 142 136 145 217 147 223 193 182 186 205 80 180 201 219 241 229 220 230 281
225 221 226 220 217 216 216 220 212 202 219 257 255 241 227 226 213 210 174 215 175 187 152 144 143 189 130 160 228 139 250 166 197 109 206 214 215 228 251 256 251 256 260 280
228 219 217 221 219 214 215 216 220 212 161 197 258 234 232 227 221 220 216 226 187 176 161 118 145 164 185 192 166 185 195 142 152 265 256 198 236 244 266 268 261 263 267 279
230 226 222 225 223 224 223 223 225 223 197 194 230 231 223 218 211 216 224 221 194 168 141 106 199 149 128 336 63 254 174 183 160 207 231 230 252 273 273 268 269 271 275 280
227 225 223 222 225 224 218 219 211 219 211 221 202 225 199 199 203 214 219 213 202 188 161 180 193 169 148 135 201 250 233 224 229 221 259 258 263 270 275 274 276 278 280 283
214 219 222 222 213 204 199 196 198 205 206 201 180 290 205 206 197 200 208 208 204 207 191 183 152 176 169 127 229 251 249 251 245 249 253 256 261 260 285 283 287 287 281 283
201 196 205 204 174 205 217 205 206 188 188 186 179 235 178 181 168 154 190 191 192 214 195 177 157 142 172 233 246 251 255 256 252 252 247 256 268 275 278 283 284 281 283 282
199 197 188 181 203 202 174 245 185 178 188 174 154 157 208 166 139 149 151 167 167 190 204 189 161 172 218 220 211 221 247 239 250 263 263 260 260 265 271 275 274 273 276 281
178 173 162 161 184 162 158 161 202 206 231 172 174 130 151 162 99 103 134 178 194 195 211 151 207 230 241 236 236 250 251 256 257 250 252 254 257 261 274 276 277 273 273 271
175 148 146 141 152 156 174 190 172 215 174 174 171 170 141 182 128 159 200 168 162 185 233 182 197 256 244 239 237 246 248 251 255 256 262 267 269 271 272 274 271 262 258 256
161 142 132 147 177 179 180 178 157 173 212 176 160 178 168 155 155 120 173 168 174 222 142 158 229 248 250 250 248 249 254 256 260 264 265 265 265 265 266 255 247 244 242 239
156 154 149 170 175 212 186 170 191 182 172 170 165 157 144 131 162 126 166 181 206 114 179 218 226 241 247 248 252 252 254 258 261 261 257 252 251 250 240 237 234 231 228 230
183 173 184 189 194 255 191 185 176 200 169 164 149 124 140 149 165 160 187 186 127 193 195 225 236 244 258 255 251 252 255 255 255 250 244 238 231 227 223 220 218 218 221 230
198 180 207 191 200 121 157 145 133 153 165 154 113 96 125 152 190 187 130 171 208 203 224 231 9 300 274 269 266 258 252 247 238 232 226 220 215 211 208 203 205 213 224 237
184 188 124 75 79 318 145 154 126 140 155 135 130 143 176 191 185 184 199 172 205 239 242 339 335 326 314 291 280 270 254 237 225 215 207 203 199 194 190 189 195 203 219 244
174 107 134 150 114 164 137 129 135 150 158 151 157 191 196 115 197 207 171 201 247 321 335 340 338 344 342 315 278 237 220 202 191 189 181 178 180 179 178 180 183 194 218 256
Wind_Speed_850mb
60 59 60 64 49 25 24 41 11 39 76 31 12 27 17 16 17 16 6 7 7 16 17 15 16 20 15 26 26 16 9 8 7 14 2 5 4 13 13 11 13 6 5 27
58 62 49 53 50 49 30 8 7 53 66 25 10 6 9 17 11 12 14 12 8 5 16 9 11 11 3 26 18 19 15 3 2 11 4 2 9 7 6 9 7 12 10 15
42 46 53 62 56 52 37 16 3 11 26 10 25 18 11 12 11 10 12 10 11 8 7 5 9 13 4 3 5 4 18 9 15 25 10 7 8 10 11 10 8 11 30 17
2 29 45 51 66 64 69 27 9 12 12 12 8 16 18 19 12 14 32 7 29 22 14 16 16 6 5 4 8 10 11 15 10 6 9 6 8 10 17 17 16 23 20 20
20 9 20 48 55 50 36 19 13 12 8 18 22 19 18 28 31 18 16 21 22 24 25 20 17 14 8 10 2 11 3 6 7 6 4 7 10 14 17 21 10 13 18 35
24 25 25 19 29 41 16 11 13 15 9 2 23 21 34 34 28 2 7 21 11 28 29 8 1 12 17 14 18 13 13 11 8 21 2 6 16 22 30 19 19 18 27 36
27 29 36 33 29 30 30 21 17 5 4 6 5 4 25 18 11 14 6 4 4 17 21 30 22 28 19 14 8 11 13 14 4 5 4 10 6 6 7 14 16 14 5 6
30 27 29 33 35 35 35 33 20 10 2 3 10 12 3 8 24 6 15 14 14 43 20 7 7 6 6 4 6 2 9 10 7 8 9 14 15 11 14 15 18 17 23 11
48 37 31 26 23 26 30 31 29 13 8 9 4 9 12 6 6 5 4 14 55 31 5 5 11 9 8 8 2 11 5 8 8 7 8 17 8 4 11 14 13 20 29 18
48 45 42 32 30 27 21 16 28 16 10 9 17 6 11 15 8 5 8 18 9 12 6 5 7 9 8 12 15 9 6 1 18 11 11 15 13 12 14 11 15 26 31 21
55 52 48 44 38 39 34 29 19 27 10 7 10 12 13 16 21 9 15 12 1 5 9 8 8 6 11 5 6 15 15 16 8 5 3 18 24 13 18 11 28 35 33 26
53 55 52 49 47 46 48 38 31 30 16 7 25 35 29 28 26 30 47 5 14 20 6 2 6 4 3 6 7 2 5 14 12 21 14 1 43 15 43 35 29 32 28 23
65 49 55 52 48 48 55 54 44 41 24 22 35 34 43 39 30 31 23 14 17 19 11 11 4 7 7 10 10 4 9 11 7 9 8 12 23 33 34 39 56 53 46 39
56 56 55 50 47 49 56 64 58 51 14 6 14 25 43 39 49 33 34 16 34 25 19 9 5 6 12 6 5 8 12 19 11 5 8 10 31 39 43 50 57 52 53 56
57 57 52 53 54 50 50 57 65 62 40 13 7 17 29 35 51 49 43 33 39 30 10 5 5 9 8 2 4 9 20 13 9 9 25 23 29 48 47 46 53 58 60 63
60 55 56 53 56 51 49 34 71 74 67 11 3 12 22 26 36 53 48 44 41 28 16 8 10 12 10 7 7 40 42 19 39 21 52 46 53 55 56 58 64 65 65 66
51 57 58 59 61 53 60 14 10 69 68 15 3 6 14 38 39 36 47 45 28 25 14 10 14 9 24 6 13 54 37 42 52 61 63 43 65 49 57 52 50 51 53 55
41 35 33 36 32 44 31 42 12 37 55 15 6 6 4 25 16 10 27 22 24 15 16 6 7 15 10 12 26 45 50 53 45 59 59 67 66 59 62 58 60 61 64 58
41 36 27 28 20 15 11 9 18 49 24 11 6 12 9 28 12 14 16 20 7 19 11 9 21 7 13 20 33 38 67 62 71 66 56 54 52 54 46 43 50 57 56 54
46 46 17 13 15 19 21 15 13 19 13 11 4 13 4 17 6 4 12 12 7 9 10 22 9 13 68 44 33 56 64 67 74 63 63 65 61 58 51 46 46 48 48 48
42 15 14 19 39 28 17 9 6 5 6 19 14 21 7 22 7 6 11 5 6 6 8 12 7 9 36 63 75 89 85 79 79 74 73 64 58 56 52 49 46 42 42 40
25 21 27 30 16 13 11 11 6 7 11 11 10 19 17 19 13 7 11 7 5 10 12 7 6 14 53 58 64 81 88 88 88 85 79 67 60 54 49 39 36 35 33 32
30 12 12 11 13 12 14 14 3 8 10 25 21 6 20 12 12 6 6 11 12 14 8 8 12 34 58 63 70 72 73 75 72 71 62 53 46 39 34 31 32 32 30 26
9 10 12 11 6 7 5 9 10 10 20 45 36 12 8 11 8 6 9 8 8 9 10 14 14 46 46 36 45 52 58 62 60 54 45 41 37 34 31 31 28 26 22 19
13 12 9 9 6 4 3 8 9 9 20 47 15 10 10 4 6 8 5 8 8 11 12 8 3 8 21 27 34 41 45 43 41 38 35 34 33 30 26 23 20 17 14 12
15 9 6 3 6 4 5 9 10 15 35 23 10 7 7 9 7 10 13 13 12 9 5 13 17 15 14 15 19 22 26 29 32 32 30 26 23 21 20 17 14 11 9 8
3 4 9 8 7 9 9 9 11 29 24 4 4 10 10 5 5 6 8 9 4 8 15 19 19 16 13 9 7 9 14 20 24 24 24 23 21 18 18 17 14 10 7 6
Wind_Direction_850mb
237 236 236 235 216 208 200 198 222 200 196 188 199 211 179 180 161 185 155 146 154 168 176 175 200 198 213 172 149 162 205 138 167 198 233 301 242 206 166 196 234 235 163 262
236 233 234 223 223 219 202 207 146 179 182 204 196 108 172 188 143 156 159 171 168 191 178 180 195 190 176 173 158 164 182 170 32 337 351 74 225 198 141 108 66 199 207 259
215 219 225 216 213 207 195 174 171 183 235 254 193 170 176 184 212 161 149 165 146 127 160 230 196 197 113 118 175 150 179 162 181 238 190 134 180 197 178 156 192 207 235 257
261 219 214 219 211 207 196 176 197 209 208 200 157 171 172 197 169 200 187 202 204 185 201 217 210 158 146 95 153 120 164 227 165 217 158 149 218 208 173 195 216 216 242 222
275 251 219 209 208 195 188 152 159 196 286 214 192 194 198 205 199 165 204 222 191 190 206 193 190 151 180 189 107 143 89 192 109 256 242 195 252 235 204 236 244 255 263 268
253 248 238 227 216 210 188 165 157 173 173 254 197 199 205 206 187 176 92 224 156 210 220 229 117 177 175 180 159 156 142 135 132 235 90 104 278 218 211 208 210 215 233 242
234 228 232 233 232 237 231 199 196 130 172 175 226 170 181 163 175 155 123 101 176 148 153 129 103 71 68 121 86 144 134 129 148 125 109 222 261 75 106 221 250 211 266 234
234 228 227 230 233 229 226 222 188 161 168 223 168 179 130 182 188 134 148 168 179 154 128 102 100 28 35 340 3 137 138 140 153 198 202 320 271 194 169 170 260 192 212 220
229 217 222 221 245 249 237 225 216 163 131 222 251 136 172 146 135 115 102 148 154 158 103 132 165 178 143 233 342 11 67 61 170 131 178 220 269 69 127 108 274 211 192 193
226 215 221 229 241 231 233 233 223 193 163 204 186 171 165 158 140 107 130 141 158 160 129 136 159 198 167 175 169 178 100 125 215 201 233 281 227 179 127 113 250 162 181 191
232 237 232 231 223 224 220 220 215 215 205 231 221 195 161 159 177 149 155 102 136 101 179 165 167 161 202 128 177 175 159 163 194 84 184 269 164 116 164 190 156 171 191 220
230 225 227 222 219 213 217 219 204 205 223 270 241 233 225 218 220 187 172 206 155 165 119 152 93 142 136 145 217 147 223 193 182 186 205 80 180 201 219 241 229 220 230 281
225 221 226 220 217 216 216 220 212 202 219 257 255 241 227 226 213 210 174 215 175 187 152 144 143 189 130 160 228 139 250 166 197 109 206 214 215 228 251 256 251 256 260 280
228 219 217 221 219 214 215 216 220 212 161 197 258 234 232 227 221 220 216 226 187 176 161 118 145 164 185 192 166 185 195 142 152 265 256 198 236 244 266 268 261 263 267 279
230 226 222 225 223 224 223 223 225 223 197 194 230 231 223 218 211 216 224 221 194 168 141 106 199 149 128 336 63 254 174 183 160 207 231 230 252 273 273 268 269 271 275 280
227 225 223 222 225 224 218 219 211 219 211 221 202 225 199 199 203 214 219 213 202 188 161 180 193 169 148 135 201 250 233 224 229 221 259 258 263 270 275 274 276 278 280 283
214 219 222 222 213 204 199 196 198 205 206 201 180 290 205 206 197 200 208 208 204 207 191 183 152 176 169 127 229 251 249 251 245 249 253 256 261 260 285 283 287 287 281 283
201 196 205 204 174 205 217 205 206 188 188 186 179 235 178 181 168 154 190 191 192 214 195 177 157 142 172 233 246 251 255 256 252 252 247 256 268 275 278 283 284 281 283 282
199 197 188 181 203 202 174 245 185 178 188 174 154 157 208 166 139 149 151 167 167 190 204 189 161 172 218 220 211 221 247 239 250 263 263 260 260 265 271 275 274 273 276 281
178 173 162 161 184 162 158 161 202 206 231 172 174 130 151 162 99 103 134 178 194 195 211 151 207 230 241 236 236 250 251 256 257 250 252 254 257 261 274 276 277 273 273 271
175 148 146 141 152 156 174 190 172 215 174 174 171 170 141 182 128 159 200 168 162 185 233 182 197 256 244 239 237 246 248 251 255 256 262 267 269 271 272 274 271 262 258 256
161 142 132 147 177 179 180 178 157 173 212 176 160 178 168 155 155 120 173 168 174 222 142 158 229 248 250 250 248 249 254 256 260 264 265 265 265 265 266 255 247 244 242 239
156 154 149 170 175 212 186 170 191 182 172 170 165 157 144 131 162 126 166 181 206 114 179 218 226 241 247 248 252 252 254 258 261 261 257 252 251 250 240 237 234 231 228 230
183 173 184 189 194 255 191 185 176 200 169 164 149 124 140 149 165 160 187 186 127 193 195 225 236 244 258 255 251 252 255 255 255 250 244 238 231 227 223 220 218 218 221 230
198 180 207 191 200 121 157 145 133 153 165 154 113 96 125 152 190 187 130 171 208 203 224 231 9 300 274 269 266 258 252 247 238 232 226 220 215 211 208 203 205 213 224 237
184 188 124 75 79 318 145 154 126 140 155 135 130 143 176 191 185 184 199 172 205 239 242 339 335 326 314 291 280 270 254 237 225 215 207 203 199 194 190 189 195 203 219 244
174 107 134 150 114 164 137 129 135 150 158 151 157 191 196 115 197 207 171 201 247 321 335 340 338 344 342 315 278 237 220 202 191 189 181 178 180 179 178 180 183 194 218 256